EGVNEGYP

Guest
Details From EGVN - Brize Norton Ab
To EGYP - Mount Pleasant
Flight Number -
Tags Decoded
Created
Modified
Stats Distance 7,052 nm / 13,061 km
Max Altitude 0 ft / 0 m
Waypoints 3
Social Downloads 1
Likes 0
Share VATSIM

Download

Looking for another format? Having issues loading an existing format? Contact us
Advertisement - Login to hide

Notes

Decoded

Route

EGVN FHAW EGYP

ID Type Via Altitude Latitude Longitude Leg Dist Tot Dist Heading (true) Name
O EGVN APT - 0 ft / 0 m 51.74607˚ -1.60421˚ - 0 nm - -
FHAW APT - 0 ft / 0 m -7.96341˚ -14.40604˚ 3646 nm 3646 nm 195° / 189° -
O EGYP APT - 0 ft / 0 m -51.82436˚ -58.45114˚ 3405 nm 7052 nm 211° / 235° Mount Pleasant

Altitude Profile

Advertisement - Login to hide

Weather


0- 5 10 15 20 25 30 35+ Temperature / ° C

Clouds and Precipitation
Forecast for 2018-05-24 12:00 UTC. Updated 3 hours ago

Ground ~20,000 ft ~40,000 ft Winds

EGVN

Details ICAO EGVN (BZZ)
Name RAF Brize Norton
Region United Kingdom
Timezone Europe/London (UTC+1.0)
Stats Elevation 289 ft / 88 m (AMSL)
Location 51.749979° -1.582958°
Runways 1
Magnetic Variation 0.923° W

METAR

EGVN 241350Z 05008KT 9999 SCT015 BKN050 16/12 Q1020 WHT BECMG FEW015 BLU

Decode

TAF

TAF EGVN 241347Z 2415/2515 05008KT 9999 FEW045 TEMPO 2415/2509 4000 SHRA SCT040CB PROB30 TEMPO 2417/2421 3000 +TSRA BKN015CB BECMG 2502/2504 BKN008 PROB40 2511/2515 SCT018

Decode

Departure Runways

ID Width Length Bearing (true) Bearing (mag) Surface Threshold Offset Overrun Length
08 184 ft / 56 m 10,016 ft / 3,053 m 73.42° 74.34° Asphalt 0 ft / 0 m 459 ft / 140 m
26 184 ft / 56 m 10,016 ft / 3,053 m 253.46° 254.38° Asphalt 0 ft / 0 m 577 ft / 176 m

EGYP

Details ICAO EGYP (MPN)
Name Mount Pleasant
Region United Kingdom
Timezone Atlantic/Stanley (UTC-3.0)
Stats Elevation 244 ft / 74 m (AMSL)
Location -51.820574° -58.448876°
Runways 2
Magnetic Variation 3.265° E

METAR

EGYP 241350Z AUTO 35022KT 9999 // NCD 05/01 Q1007

Decode

TAF

TAF EGYP 241330Z 2415/2509 35017G27KT 9999 FEW009 520003 TEMPO 2415/2421 35025G37KT 7000 RA SCT018 530003 PROB30 TEMPO 2415/2422 VRB07KT SCT007 560003 BECMG 2421/2423 30015KT 50//// PROB30 TEMPO 2422/2509 SCT006 BECMG 2501/2503 27012KT

Decode

Destination Runways

ID Width Length Bearing (true) Bearing (mag) Surface Threshold Offset Overrun Length
05 82 ft / 25 m 4,974 ft / 1,516 m 55.18° 51.92° Asphalt 0 ft / 0 m 591 ft / 180 m
10 151 ft / 46 m 8,492 ft / 2,588 m 105.24° 101.98° Asphalt 0 ft / 0 m 591 ft / 180 m
23 82 ft / 25 m 4,974 ft / 1,516 m 235.16° 231.90° Asphalt 0 ft / 0 m 72 ft / 22 m
28 151 ft / 46 m 8,492 ft / 2,588 m 285.21° 281.95° Asphalt 0 ft / 0 m 591 ft / 180 m

Approach Navaids

Runway Type Ident Frequency Range Bearing (true) Bearing (mag) Slope Elevation
28 Localiser MP 111.90 MHz 18 nm / 33 km 285.67° 282.41° - 244 ft / 74 m (AMSL)
28 Glidescope MP 111.90 MHz 10 nm / 19 km 285.43° 282.17° 3.00° 244 ft / 74 m (AMSL)

Popular Alternatives